Theta_e
317 318 324 334 342 339 345 351 354 353 350 345 340 349 355 354 358 355 348 349 338 332 328 330 345 351 350 347 346 341 337 328 330 336 338 338 337 337 339 337 336 335 335 336 336 334 330 330 326
316 326 331 332 340 342 342 351 354 346 347 342 343 350 352 352 345 348 348 346 335 331 327 336 347 350 350 347 344 339 334 330 333 338 341 338 338 339 340 344 341 336 337 338 338 339 338 330 331
318 327 329 332 334 338 339 346 349 345 345 345 347 350 351 350 344 344 347 345 335 334 328 340 349 349 349 348 343 339 332 334 335 342 340 338 340 341 342 344 343 340 341 341 341 342 341 337 332
316 330 330 333 334 334 334 337 346 348 346 344 349 356 350 347 345 347 345 343 336 341 329 343 349 349 349 347 341 336 333 334 342 344 341 339 340 341 341 341 341 342 342 343 343 341 340 339 339
322 328 333 331 331 332 333 334 337 345 346 346 352 358 350 346 344 345 344 343 342 344 331 340 347 349 349 349 341 335 334 336 347 342 341 341 341 340 340 340 341 339 340 340 341 341 339 339 339
324 326 329 330 330 331 330 331 338 344 347 346 356 357 351 346 343 345 343 342 342 344 329 337 346 347 348 348 342 337 334 341 344 342 340 340 339 338 337 336 337 337 337 337 338 338 338 338 339
322 323 327 327 327 328 328 329 335 337 336 345 354 358 350 346 344 345 343 344 345 343 329 332 344 346 347 348 344 338 334 344 344 341 339 338 337 336 335 333 333 334 334 336 336 336 337 338 338
320 321 325 324 326 324 324 332 332 343 346 344 347 356 353 345 344 344 345 347 346 343 333 333 340 345 347 347 346 342 335 343 344 339 337 336 336 335 333 332 332 333 333 335 335 336 336 338 338
320 322 323 323 323 324 322 324 332 339 344 344 351 351 347 345 344 344 346 347 345 344 335 336 341 343 345 347 347 343 340 343 341 339 337 336 335 334 332 331 333 332 333 333 334 335 337 337 337
323 321 323 323 323 322 319 320 330 333 337 354 355 351 347 344 343 342 341 345 344 343 342 338 339 342 342 344 344 343 341 341 340 339 337 335 335 333 331 335 341 333 332 333 333 335 337 338 338
323 323 321 323 322 321 320 320 321 333 337 341 356 353 347 344 342 342 342 341 343 342 341 340 339 341 344 345 339 340 339 338 340 338 336 335 339 340 338 339 340 335 332 332 332 336 338 339 342
323 323 322 320 320 320 319 319 320 322 327 331 340 350 347 345 341 340 341 341 342 341 340 340 339 337 341 343 337 339 338 340 339 340 338 335 339 342 339 339 341 341 330 330 332 336 338 339 342
318 320 320 320 317 319 318 318 320 325 328 329 331 344 347 344 342 343 342 346 342 342 339 339 338 337 338 340 336 338 341 343 340 342 342 341 338 341 340 341 343 338 333 332 338 340 343 342 343
318 317 318 317 318 318 318 319 320 329 330 329 327 326 328 340 341 343 344 346 343 342 340 340 338 337 339 340 339 338 340 341 342 341 341 342 340 341 341 342 343 340 338 339 338 341 343 342 341
317 318 319 319 316 317 317 318 318 329 335 335 333 347 348 347 346 344 345 347 345 342 341 340 339 338 341 342 340 338 342 341 342 343 342 341 338 341 341 337 337 340 340 341 340 341 343 342 342
319 318 315 316 318 319 317 317 328 331 336 338 343 348 346 345 344 345 346 347 349 348 342 341 340 339 338 344 341 338 339 342 341 343 343 342 338 341 341 339 337 339 340 340 340 342 338 341 342
318 316 316 317 317 319 317 331 333 332 336 348 346 345 344 342 342 343 344 345 347 348 345 340 341 339 338 340 343 340 339 339 340 341 344 343 342 341 342 340 338 339 342 339 340 340 341 338 345
320 317 315 317 318 320 317 332 333 335 341 345 343 341 340 339 339 340 340 342 344 346 348 346 344 340 338 339 342 342 342 342 342 340 341 344 344 341 342 340 337 338 343 342 343 342 339 338 343
325 324 325 319 321 322 319 335 333 334 337 341 339 338 338 337 337 339 339 341 343 346 346 348 348 347 345 340 341 345 342 342 343 343 343 345 345 343 341 340 340 338 341 343 341 341 340 341 343
322 323 324 328 327 327 330 334 332 333 335 337 336 335 333 333 335 339 339 341 339 341 342 345 348 349 347 346 343 343 344 344 344 343 344 343 345 344 343 342 340 337 341 343 343 341 342 343 341
322 320 316 317 320 327 328 329 333 335 335 334 332 331 330 331 332 336 335 335 334 336 337 339 343 345 345 345 346 346 345 344 343 343 343 342 344 345 344 343 342 340 338 341 345 342 344 343 341
321 316 315 316 316 317 323 320 334 336 334 332 329 327 327 327 330 332 331 331 331 331 332 333 336 339 340 342 342 341 340 340 339 340 339 337 335 340 339 343 343 342 340 341 343 344 341 343 342
319 315 314 314 312 313 312 311 322 334 335 332 329 327 326 326 328 329 328 328 327 326 326 326 326 328 329 332 333 333 334 334 334 335 335 336 335 332 331 333 341 342 341 342 342 341 343 342 341
318 315 314 312 310 310 311 312 336 335 333 331 329 328 326 326 326 328 328 328 327 326 325 324 322 320 320 321 322 324 325 325 328 331 333 334 332 336 329 333 331 335 329 333 334 340 341 341 342
316 314 313 314 313 315 315 317 315 333 332 330 328 328 326 324 323 322 322 324 324 325 325 324 322 321 319 319 318 318 319 320 320 322 324 326 331 330 329 330 333 332 333 328 328 334 337 338 339
316 315 313 315 313 314 317 339 338 333 331 330 328 323 326 322 320 322 322 323 324 324 323 322 320 319 318 317 316 315 316 315 316 317 320 322 322 321 321 323 325 328 329 328 332 333 335 336 337
316 315 314 318 318 316 318 336 336 332 333 332 326 323 326 324 322 321 323 324 324 324 323 322 320 318 317 316 315 314 314 313 312 312 314 314 315 316 317 318 319 319 319 320 323 325 327 330 332
316 315 312 312 319 319 317 331 335 335 333 327 324 321 326 325 322 320 321 322 322 321 321 321 319 318 317 315 315 314 314 313 312 311 310 310 310 312 312 312 313 314 314 314 316 316 318 319 321
315 315 316 313 314 314 317 319 329 330 327 326 321 320 324 325 323 321 320 320 320 319 319 319 319 318 316 314 313 313 312 312 312 311 310 310 310 309 310 310 310 310 310 310 311 311 312 313 315
316 319 319 316 318 320 322 321 330 326 324 323 321 320 317 325 324 322 321 320 320 319 319 318 318 317 315 312 310 309 311 311 310 309 308 308 307 307 307 306 306 307 307 307 307 308 309 310 311
Wind_Speed
10 9 2 2 2 2 6 7 9 13 7 17 8 14 15 9 5 6 24 32 36 37 30 29 28 26 22 24 21 20 18 17 18 19 19 19 19 19 20 20 19 19 19 18 17 17 17 17 19
9 4 5 2 2 4 8 17 19 4 13 2 10 19 18 13 9 17 16 33 38 37 31 30 29 26 24 24 22 20 19 18 18 18 17 18 17 18 19 19 18 19 18 16 16 16 16 17 18
9 11 1 4 4 10 5 12 16 16 29 4 4 11 7 8 15 7 36 35 37 34 31 30 28 25 24 24 22 21 19 17 18 18 17 17 17 16 17 17 16 18 15 12 13 13 14 15 15
7 2 4 1 11 20 15 11 13 18 16 2 11 9 10 15 13 25 40 32 34 28 30 31 29 26 22 20 23 20 18 17 19 17 17 17 16 15 15 15 15 15 16 14 13 12 12 12 12
3 2 3 5 11 19 19 15 9 14 7 8 15 5 4 11 35 46 38 32 34 27 29 31 29 28 25 21 22 20 18 19 18 18 17 16 15 14 14 13 13 14 14 13 12 11 10 10 9
1 3 0 7 15 19 17 10 9 13 13 10 12 10 7 20 26 35 38 37 35 31 30 30 28 27 25 23 23 21 19 19 17 17 17 16 15 14 13 12 12 13 12 12 11 9 9 9 8
5 1 6 9 13 17 17 7 9 8 6 6 21 10 6 15 22 31 35 38 38 32 32 29 28 26 24 23 23 21 20 19 17 16 16 15 14 13 12 11 11 12 12 11 10 8 7 7 7
3 1 6 8 12 15 11 6 10 15 7 8 15 12 6 10 25 28 37 41 37 32 32 30 28 27 25 22 22 22 21 20 18 17 15 15 13 12 11 10 10 10 11 11 10 9 7 7 6
7 2 6 11 11 16 11 4 5 14 10 6 7 20 18 30 29 27 36 35 36 32 32 29 27 26 27 25 23 22 22 21 20 17 16 15 14 12 10 9 8 9 10 10 9 9 8 6 4
8 5 8 14 11 10 8 10 6 4 12 21 19 20 29 29 28 23 22 31 33 35 34 30 28 25 24 24 25 24 23 24 22 20 18 16 14 12 10 9 9 9 10 11 10 10 9 8 4
8 7 11 18 10 9 8 9 7 8 6 11 21 20 16 19 19 19 23 29 38 40 37 34 30 27 27 25 27 26 25 24 22 20 20 18 17 14 14 11 10 10 12 13 12 12 11 8 6
8 15 15 13 12 4 7 7 7 5 5 11 11 19 12 9 9 14 19 26 36 38 39 41 36 32 32 28 27 27 27 25 25 22 21 21 21 17 19 18 17 16 14 14 13 12 10 9 11
8 11 12 16 10 5 6 6 4 7 11 11 11 14 16 10 12 16 15 11 17 32 38 39 40 34 36 31 27 27 25 26 25 24 22 22 24 20 26 20 17 14 15 16 15 13 13 15 15
9 13 13 11 9 5 3 5 1 6 9 8 7 3 5 10 11 15 11 19 18 26 34 35 42 35 37 36 32 32 28 27 25 26 25 23 25 21 28 26 20 18 17 17 17 17 17 16 14
8 5 6 5 9 8 8 4 4 8 13 8 3 13 18 19 15 15 12 15 17 19 30 34 43 35 33 35 34 33 33 30 31 31 29 25 25 21 25 18 19 18 23 20 20 17 19 15 13
6 4 4 8 10 7 9 7 6 10 12 10 16 16 16 17 20 24 25 20 10 6 25 31 36 34 35 26 34 33 33 33 32 35 33 32 29 25 23 20 20 16 14 11 18 12 13 11 18
5 7 10 11 12 7 7 7 5 9 13 15 15 15 14 13 15 22 21 21 20 17 11 24 25 33 32 25 28 30 30 31 26 34 34 37 35 31 26 23 23 18 16 15 13 17 19 10 21
7 9 9 8 5 6 8 8 8 9 17 15 13 13 11 10 7 18 19 18 19 19 10 7 13 28 30 28 23 21 21 20 20 25 30 28 39 35 29 25 27 24 15 18 14 20 14 20 21
7 9 5 12 7 5 8 10 9 10 12 15 13 11 10 8 10 18 18 17 15 17 11 7 3 7 14 25 24 16 22 24 21 17 17 21 32 36 35 32 26 31 23 19 19 16 21 12 27
8 6 8 10 7 6 9 10 9 9 9 15 14 10 9 7 7 14 18 22 22 20 19 12 4 7 7 13 21 18 17 20 22 23 16 18 25 36 36 33 34 31 26 21 19 21 16 13 22
2 6 8 4 7 3 2 6 8 9 15 15 14 12 9 8 9 9 14 16 18 22 21 18 13 4 3 6 6 8 16 19 20 16 14 18 7 19 41 38 36 34 33 25 21 23 19 17 23
3 8 9 9 7 1 4 3 5 14 14 14 13 11 9 8 9 10 12 12 14 15 15 15 14 13 9 6 5 5 7 8 8 9 13 13 14 14 16 22 37 30 30 30 24 28 28 24 21
2 8 6 6 7 5 10 3 6 16 13 14 14 13 11 9 8 9 10 13 15 15 17 15 15 16 15 13 12 9 9 5 8 10 16 17 15 23 36 28 5 5 8 24 25 27 28 29 31
3 4 7 5 3 3 13 7 7 15 18 16 17 16 16 13 9 10 14 14 16 16 18 18 19 19 16 16 14 12 10 6 4 7 10 20 25 30 41 14 41 21 20 22 31 34 33 31 33
5 3 3 4 1 8 8 6 11 15 19 18 19 17 15 13 9 8 8 13 12 15 16 17 16 18 16 17 17 15 14 11 9 7 8 6 13 18 21 23 32 34 30 31 37 42 38 37 34
2 7 5 3 3 6 7 3 4 15 11 10 7 11 16 11 8 8 8 11 12 12 12 10 13 15 15 15 15 15 14 13 13 11 8 10 10 10 11 11 11 14 22 25 29 29 36 38 35
2 3 4 2 4 5 2 5 6 12 11 8 10 16 16 13 10 8 8 8 9 11 12 11 10 9 11 12 12 13 12 13 12 11 11 9 8 10 11 11 11 10 10 7 13 17 18 23 23
5 3 4 4 2 6 4 4 6 9 11 12 13 13 16 13 11 8 11 10 7 7 9 10 9 8 8 9 10 9 9 9 10 9 10 9 8 8 9 9 9 9 10 11 12 13 16 15 17
1 2 4 4 3 3 2 4 10 16 14 14 11 13 16 15 14 11 13 14 10 8 6 6 4 3 4 5 5 6 6 5 7 9 8 8 9 8 9 9 10 10 9 10 12 13 14 13 14
9 5 5 5 6 1 1 5 5 9 10 9 11 14 12 17 14 13 18 21 19 13 14 9 4 4 2 3 5 5 4 3 4 6 7 7 7 6 5 6 7 8 10 9 8 10 9 9 9
Wind_Direction
250 246 263 260 30 213 251 177 34 314 280 226 48 79 85 48 81 139 118 139 143 147 148 145 142 142 148 150 145 144 139 135 134 129 124 122 122 121 120 117 118 120 118 116 112 108 108 113 112
234 205 231 254 175 286 282 113 173 41 272 316 55 91 70 73 88 115 103 137 147 145 146 145 144 145 148 149 146 147 144 140 141 137 130 129 127 127 125 123 125 124 123 120 117 110 105 110 117
204 220 29 181 204 234 246 126 133 128 264 286 74 64 74 113 124 111 135 139 142 143 146 146 144 144 148 149 148 148 148 144 142 138 139 135 134 132 131 130 134 132 124 128 124 119 112 114 121
179 296 308 271 268 276 267 288 184 178 257 81 103 51 62 125 124 134 135 132 137 144 149 148 145 143 145 148 150 150 150 147 142 146 143 140 140 138 138 140 142 140 138 141 129 121 116 118 119
231 282 214 233 249 256 263 256 160 133 116 122 105 134 70 78 121 132 133 132 137 150 152 151 149 148 151 154 155 154 153 149 152 150 148 146 146 145 146 148 150 146 144 140 137 132 124 118 119
239 165 274 229 255 258 261 208 144 129 133 136 98 124 165 128 132 136 137 139 149 149 154 153 154 152 152 160 161 158 157 154 158 155 153 151 151 151 151 151 156 155 154 151 147 146 133 129 130
202 180 234 258 267 286 279 215 151 158 138 135 144 119 108 110 151 141 140 144 151 149 153 155 158 155 156 163 164 161 161 158 164 161 158 159 157 158 158 159 161 164 163 162 157 162 148 141 144
205 214 272 254 256 270 274 1 124 117 104 107 118 131 145 142 151 151 132 142 143 148 154 156 158 160 162 166 168 165 165 164 169 168 167 167 166 167 166 168 170 178 174 177 171 177 180 157 156
209 256 245 257 261 266 315 306 136 122 131 128 90 125 143 146 158 157 133 137 139 148 156 157 160 165 166 167 170 171 170 170 172 176 176 176 176 177 175 176 177 193 194 192 189 192 195 188 175
200 192 244 253 273 312 334 23 26 99 109 108 117 132 152 151 162 154 157 149 149 151 156 161 163 165 169 170 173 175 173 177 179 182 185 185 182 183 179 191 199 208 210 208 202 198 206 203 200
230 220 240 254 271 315 336 357 350 93 78 130 138 145 155 156 159 158 175 162 159 158 157 164 164 166 175 173 177 178 179 181 184 190 193 191 188 196 192 201 206 216 217 216 212 206 208 210 178
200 227 243 269 271 324 319 325 332 41 69 64 121 145 148 155 167 177 181 179 158 160 162 168 169 164 177 185 182 181 183 185 187 193 195 198 194 208 213 212 225 223 217 217 216 213 204 201 199
211 232 230 245 265 246 305 308 304 74 86 79 95 141 161 169 174 194 121 89 143 160 166 168 171 167 176 189 183 184 191 190 193 197 204 207 205 207 204 212 223 216 213 214 216 221 222 211 202
242 218 228 245 254 244 197 275 143 101 104 96 105 134 189 174 151 125 112 101 116 159 167 166 173 171 180 188 187 187 190 197 201 202 206 211 216 218 206 208 217 228 224 226 226 227 213 189 194
263 276 225 250 243 222 165 247 272 142 101 102 126 74 57 52 55 110 111 103 149 165 164 173 175 173 178 188 192 190 193 199 205 210 208 207 211 220 207 220 222 237 220 234 233 227 194 187 169
277 302 253 253 242 234 110 238 133 124 106 72 79 69 63 51 51 39 45 45 51 147 193 165 174 179 184 184 193 194 196 201 209 213 216 215 211 213 217 223 232 241 230 228 211 174 184 156 166
260 222 234 248 203 188 130 137 121 103 113 88 82 74 69 53 41 46 39 38 35 46 141 161 179 186 188 187 185 198 204 211 212 218 219 216 216 211 213 215 232 239 243 231 227 203 195 174 139
234 228 247 208 149 156 142 133 141 118 106 106 93 84 74 66 44 44 39 31 36 32 43 144 157 187 198 199 203 206 212 222 238 229 230 224 216 214 212 218 223 238 249 247 200 201 195 192 164
281 336 277 127 129 123 181 142 147 131 115 115 106 96 90 72 66 55 35 30 28 31 36 35 233 153 190 212 219 213 221 230 245 251 239 225 215 212 216 220 221 229 247 259 222 194 190 179 158
330 335 19 119 144 138 116 145 156 140 136 112 110 103 100 89 70 66 52 48 48 43 32 35 3 250 206 195 226 235 237 234 248 251 263 274 234 217 216 215 217 225 235 251 236 214 206 187 188
317 27 14 29 352 66 90 132 140 82 99 104 102 102 95 103 87 67 55 45 43 39 38 43 50 62 315 294 253 271 251 251 253 266 272 284 284 234 222 216 214 218 230 240 247 224 213 194 196
52 23 11 1 31 236 66 275 165 131 120 116 119 122 121 103 98 91 69 57 54 47 52 47 51 52 39 6 329 33 47 13 346 310 297 308 346 305 331 266 215 213 223 232 236 236 226 219 206
11 28 7 345 321 352 305 112 234 142 150 152 150 147 132 114 103 102 104 95 86 72 65 61 58 56 47 45 54 62 65 30 326 319 297 268 281 311 319 320 111 203 301 252 243 242 239 229 222
46 26 323 288 220 323 245 179 207 177 169 156 155 152 141 131 125 128 125 108 94 87 72 62 61 57 55 55 56 59 58 38 7 352 286 258 248 257 285 287 292 287 292 303 312 256 246 244 237
134 115 325 334 329 230 265 228 214 182 166 157 157 152 143 134 126 109 100 91 82 74 77 73 66 62 60 61 59 59 59 59 44 12 357 353 270 266 278 277 273 285 279 290 278 281 260 252 247
341 158 165 247 279 275 337 342 268 124 113 100 114 127 134 119 112 107 115 120 119 101 85 67 61 63 58 62 61 59 59 51 49 38 15 350 355 331 310 302 302 280 266 259 251 257 259 259 260
358 346 214 72 308 351 181 10 55 111 125 155 179 128 138 133 132 140 148 134 110 106 104 93 87 72 64 64 64 58 56 48 46 45 38 28 3 344 338 335 327 320 321 265 256 258 258 255 256
187 248 18 347 207 271 311 155 160 177 175 170 152 143 140 143 143 158 162 145 127 103 89 75 73 71 66 66 66 57 45 42 33 33 38 27 14 2 348 339 333 325 320 315 312 300 283 291 277
137 255 232 146 151 197 310 256 188 166 169 174 156 150 145 156 159 169 158 166 172 167 138 101 84 87 74 57 74 79 66 46 21 9 19 16 17 16 4 354 346 342 332 321 309 302 297 289 284
207 164 121 111 300 339 186 288 164 161 169 168 148 154 156 166 172 165 168 177 179 185 152 128 149 131 112 72 83 89 101 79 46 31 13 11 16 20 23 14 5 348 336 331 316 303 289 281 270